Location: Newark
(35.2672°N, 80.7344°W)
Time: 04:22:40
(UTC+00:00)

Tiros 1 - Pass Details

Date: 21 January 2020
Orbit: 631 x 664 km, 48.4° (Epoch: 19 February)

Event Time Altitude Azimuth Distance (km) Brightness Sun altitude
Rises 22:33:54 0° 303° (WNW) 2,970 11.0 0.2°
Reaches altitude 10° 22:37:02 10° 324° (NW) 2,065 9.9 -0.4°
Maximum altitude 22:40:06 17° 4° (N) 1,665 9.0 -0.9°
Drops below altitude 10° 22:43:11 10° 45° (NE) 2,075 9.2 -1.5°
Enters shadow 22:45:38 - 62° (ENE) 2,763 9.7 -2.0°
Sets 22:46:20 0° 66° (ENE) 2,991 - -2.1°
